Year,Month,Day,Hour,Minute,Value (Times are PST for temperature in C)
2008,08,12,00,00,14.10
2008,08,12,00,01,14.10
2008,08,12,00,02,14.10
2008,08,12,00,03,14.10
2008,08,12,00,04,14.00
2008,08,12,00,05,14.00
2008,08,12,00,06,14.00
2008,08,12,00,07,13.90
2008,08,12,00,08,13.90
2008,08,12,00,09,13.90
2008,08,12,00,10,13.90
2008,08,12,00,11,13.90
2008,08,12,00,12,13.90
2008,08,12,00,13,13.80
2008,08,12,00,14,13.80
2008,08,12,00,15,13.80
2008,08,12,00,16,13.80
2008,08,12,00,17,13.80
2008,08,12,00,18,13.80
2008,08,12,00,19,13.80
2008,08,12,00,20,13.80
2008,08,12,00,21,13.80
2008,08,12,00,22,13.80
2008,08,12,00,23,13.80
2008,08,12,00,24,13.80
2008,08,12,00,25,13.80
2008,08,12,00,26,13.80
2008,08,12,00,27,13.80
2008,08,12,00,28,13.80
2008,08,12,00,29,13.80
2008,08,12,00,30,13.80
2008,08,12,00,31,13.90
2008,08,12,00,32,13.90
2008,08,12,00,33,13.90
2008,08,12,00,34,13.80
2008,08,12,00,35,13.80
2008,08,12,00,36,13.80
2008,08,12,00,37,13.80
2008,08,12,00,38,13.80
2008,08,12,00,39,13.70
2008,08,12,00,40,13.70
2008,08,12,00,41,13.70
2008,08,12,00,42,13.60
2008,08,12,00,43,13.60
2008,08,12,00,44,13.60
2008,08,12,00,45,13.50
2008,08,12,00,46,13.50
2008,08,12,00,47,13.50
2008,08,12,00,48,13.40
2008,08,12,00,49,13.40
2008,08,12,00,50,13.40
2008,08,12,00,51,13.40
2008,08,12,00,52,13.40
2008,08,12,00,53,13.40
2008,08,12,00,54,13.30
2008,08,12,00,55,13.30
2008,08,12,00,56,13.30
2008,08,12,00,57,13.30
2008,08,12,00,58,13.30
2008,08,12,00,59,13.30
2008,08,12,01,00,13.30
2008,08,12,01,01,13.30
2008,08,12,01,02,13.30
2008,08,12,01,03,13.30
2008,08,12,01,04,13.30
2008,08,12,01,05,13.30
2008,08,12,01,06,13.30
2008,08,12,01,07,13.30
2008,08,12,01,08,13.30
2008,08,12,01,09,13.20
2008,08,12,01,10,13.20
2008,08,12,01,11,13.20
2008,08,12,01,12,13.20
2008,08,12,01,13,13.20
2008,08,12,01,14,13.20
2008,08,12,01,15,13.20
2008,08,12,01,16,13.20
2008,08,12,01,17,13.20
2008,08,12,01,18,13.20
2008,08,12,01,19,13.20
2008,08,12,01,20,13.20
2008,08,12,01,21,13.20
2008,08,12,01,22,13.20
2008,08,12,01,23,13.20
2008,08,12,01,24,13.20
2008,08,12,01,25,13.20
2008,08,12,01,26,13.20
2008,08,12,01,27,13.20
2008,08,12,01,28,13.20
2008,08,12,01,29,13.20
2008,08,12,01,30,13.20
2008,08,12,01,31,13.20
2008,08,12,01,32,13.20
2008,08,12,01,33,13.20
2008,08,12,01,34,13.20
2008,08,12,01,35,13.20
2008,08,12,01,36,13.20
2008,08,12,01,37,13.20
2008,08,12,01,38,13.20
2008,08,12,01,39,13.20
2008,08,12,01,40,13.20
2008,08,12,01,41,13.20
2008,08,12,01,42,13.20
2008,08,12,01,43,13.30
2008,08,12,01,44,13.30
2008,08,12,01,45,13.30
2008,08,12,01,46,13.30
2008,08,12,01,47,13.30
2008,08,12,01,48,13.30
2008,08,12,01,49,13.30
2008,08,12,01,50,13.30
2008,08,12,01,51,13.30
2008,08,12,01,52,13.30
2008,08,12,01,53,13.30
2008,08,12,01,54,13.30
2008,08,12,01,55,13.30
2008,08,12,01,56,13.40
2008,08,12,01,57,13.40
2008,08,12,01,58,13.40
2008,08,12,01,59,13.50
2008,08,12,02,00,13.50
2008,08,12,02,01,13.50
2008,08,12,02,02,13.50
2008,08,12,02,03,13.50
2008,08,12,02,04,13.50
2008,08,12,02,05,13.50
2008,08,12,02,06,13.50
2008,08,12,02,07,13.40
2008,08,12,02,08,13.40
2008,08,12,02,09,13.40
2008,08,12,02,10,13.40
2008,08,12,02,11,13.40
2008,08,12,02,12,13.40
2008,08,12,02,13,13.40
2008,08,12,02,14,13.40
2008,08,12,02,15,13.40
2008,08,12,02,16,13.40
2008,08,12,02,17,13.50
2008,08,12,02,18,13.50
2008,08,12,02,19,13.60
2008,08,12,02,20,13.60
2008,08,12,02,21,13.60
2008,08,12,02,22,13.60
2008,08,12,02,23,13.50
2008,08,12,02,24,13.50
2008,08,12,02,25,13.50
2008,08,12,02,26,13.50
2008,08,12,02,27,13.50
2008,08,12,02,28,13.40
2008,08,12,02,29,13.40
2008,08,12,02,30,13.40
2008,08,12,02,31,13.40
2008,08,12,02,32,13.30
2008,08,12,02,33,13.30
2008,08,12,02,34,13.30
2008,08,12,02,35,13.30
2008,08,12,02,36,13.30
2008,08,12,02,37,13.30
2008,08,12,02,38,13.30
2008,08,12,02,39,13.30
2008,08,12,02,40,13.30
2008,08,12,02,41,13.30
2008,08,12,02,42,13.30
2008,08,12,02,43,13.30
2008,08,12,02,44,13.30
2008,08,12,02,45,13.30
2008,08,12,02,46,13.40
2008,08,12,02,47,13.40
2008,08,12,02,48,13.40
2008,08,12,02,49,13.40
2008,08,12,02,50,13.40
2008,08,12,02,51,13.40
2008,08,12,02,52,13.40
2008,08,12,02,53,13.50
2008,08,12,02,54,13.50
2008,08,12,02,55,13.50
2008,08,12,02,56,13.60
2008,08,12,02,57,13.60
2008,08,12,02,58,13.60
2008,08,12,02,59,13.50
2008,08,12,03,00,13.50
2008,08,12,03,01,13.50
2008,08,12,03,02,13.40
2008,08,12,03,03,13.40
2008,08,12,03,04,13.40
2008,08,12,03,05,13.40
2008,08,12,03,06,13.40
2008,08,12,03,07,13.30
2008,08,12,03,08,13.30
2008,08,12,03,09,13.30
2008,08,12,03,10,13.30
2008,08,12,03,11,13.30
2008,08,12,03,12,13.30
2008,08,12,03,13,13.20
2008,08,12,03,14,13.20
2008,08,12,03,15,13.20
2008,08,12,03,16,13.20
2008,08,12,03,17,13.20
2008,08,12,03,18,13.20
2008,08,12,03,19,13.20
2008,08,12,03,20,13.20
2008,08,12,03,21,13.20
2008,08,12,03,22,13.10
2008,08,12,03,23,13.10
2008,08,12,03,24,13.10
2008,08,12,03,25,13.10
2008,08,12,03,26,13.10
2008,08,12,03,27,13.10
2008,08,12,03,28,13.10
2008,08,12,03,29,13.10
2008,08,12,03,30,13.10
2008,08,12,03,31,13.10
2008,08,12,03,32,13.10
2008,08,12,03,33,13.00
2008,08,12,03,34,13.00
2008,08,12,03,35,13.00
2008,08,12,03,36,13.00
2008,08,12,03,37,13.10
2008,08,12,03,38,13.10
2008,08,12,03,39,13.10
2008,08,12,03,40,13.10
2008,08,12,03,41,13.10
2008,08,12,03,42,13.10
2008,08,12,03,43,13.10
2008,08,12,03,44,13.10
2008,08,12,03,45,13.10
2008,08,12,03,46,13.10
2008,08,12,03,47,13.10
2008,08,12,03,48,13.10
2008,08,12,03,49,13.00
2008,08,12,03,50,13.00
2008,08,12,03,51,12.90
2008,08,12,03,52,12.90
2008,08,12,03,53,12.80
2008,08,12,03,54,12.80
2008,08,12,03,55,12.80
2008,08,12,03,56,12.80
2008,08,12,03,57,12.80
2008,08,12,03,58,12.80
2008,08,12,03,59,12.80
2008,08,12,04,00,12.80
2008,08,12,04,01,12.80
2008,08,12,04,02,12.80
2008,08,12,04,03,12.80
2008,08,12,04,04,12.70
2008,08,12,04,05,12.70
2008,08,12,04,06,12.70
2008,08,12,04,07,12.70
2008,08,12,04,08,12.70
2008,08,12,04,09,12.70
2008,08,12,04,10,12.70
2008,08,12,04,11,12.70
2008,08,12,04,12,12.70
2008,08,12,04,13,12.70
2008,08,12,04,14,12.70
2008,08,12,04,15,12.70
2008,08,12,04,16,12.80
2008,08,12,04,17,12.80
2008,08,12,04,18,12.80
2008,08,12,04,19,12.80
2008,08,12,04,20,12.80
2008,08,12,04,21,12.80
2008,08,12,04,22,12.80
2008,08,12,04,23,12.80
2008,08,12,04,24,12.80
2008,08,12,04,25,12.80
2008,08,12,04,26,12.70
2008,08,12,04,27,12.70
2008,08,12,04,28,12.70
2008,08,12,04,29,12.60
2008,08,12,04,30,12.60
2008,08,12,04,31,12.60
2008,08,12,04,32,12.60
2008,08,12,04,33,12.60
2008,08,12,04,34,12.50
2008,08,12,04,35,12.50
2008,08,12,04,36,12.50
2008,08,12,04,37,12.50
2008,08,12,04,38,12.50
2008,08,12,04,39,12.50
2008,08,12,04,40,12.40
2008,08,12,04,41,12.40
2008,08,12,04,42,12.40
2008,08,12,04,43,12.40
2008,08,12,04,44,12.40
2008,08,12,04,45,12.40
2008,08,12,04,46,12.40
2008,08,12,04,47,12.40
2008,08,12,04,48,12.50
2008,08,12,04,49,12.50
2008,08,12,04,50,12.50
2008,08,12,04,51,12.50
2008,08,12,04,52,12.50
2008,08,12,04,53,12.40
2008,08,12,04,54,12.40
2008,08,12,04,55,12.40
2008,08,12,04,56,12.40
2008,08,12,04,57,12.40
2008,08,12,04,58,12.40
2008,08,12,04,59,12.40
2008,08,12,05,00,12.30
2008,08,12,05,01,12.30
2008,08,12,05,02,12.30
2008,08,12,05,03,12.30
2008,08,12,05,04,12.30
2008,08,12,05,05,12.30
2008,08,12,05,06,12.30
2008,08,12,05,07,12.30
2008,08,12,05,08,12.30
2008,08,12,05,09,12.30
2008,08,12,05,10,12.30
2008,08,12,05,11,12.30
2008,08,12,05,12,12.40
2008,08,12,05,13,12.40
2008,08,12,05,14,12.40
2008,08,12,05,15,12.40
2008,08,12,05,16,12.50
2008,08,12,05,17,12.50
2008,08,12,05,18,12.50
2008,08,12,05,19,12.40
2008,08,12,05,20,12.40
2008,08,12,05,21,12.40
2008,08,12,05,22,12.40
2008,08,12,05,23,12.40
2008,08,12,05,24,12.40
2008,08,12,05,25,12.40
2008,08,12,05,26,12.40
2008,08,12,05,27,12.30
2008,08,12,05,28,12.30
2008,08,12,05,29,12.30
2008,08,12,05,30,12.30
2008,08,12,05,31,12.20
2008,08,12,05,32,12.20
2008,08,12,05,33,12.20
2008,08,12,05,34,12.20
2008,08,12,05,35,12.20
2008,08,12,05,36,12.30
2008,08,12,05,37,12.30
2008,08,12,05,38,12.30
2008,08,12,05,39,12.30
2008,08,12,05,40,12.30
2008,08,12,05,41,12.30
2008,08,12,05,42,12.30
2008,08,12,05,43,12.30
2008,08,12,05,44,12.30
2008,08,12,05,45,12.30
2008,08,12,05,46,12.20
2008,08,12,05,47,12.20
2008,08,12,05,48,12.20
2008,08,12,05,49,12.20
2008,08,12,05,50,12.20
2008,08,12,05,51,12.20
2008,08,12,05,52,12.20
2008,08,12,05,53,12.20
2008,08,12,05,54,12.20
2008,08,12,05,55,12.10
2008,08,12,05,56,12.10
2008,08,12,05,57,12.10
2008,08,12,05,58,12.10
2008,08,12,05,59,12.10
2008,08,12,06,00,12.10
2008,08,12,06,01,12.10
2008,08,12,06,02,12.10
2008,08,12,06,03,12.10
2008,08,12,06,04,12.10
2008,08,12,06,05,12.10
2008,08,12,06,06,12.20
2008,08,12,06,07,12.20
2008,08,12,06,08,12.20
2008,08,12,06,09,12.20
2008,08,12,06,10,12.20
2008,08,12,06,11,12.20
2008,08,12,06,12,12.20
2008,08,12,06,13,12.20
2008,08,12,06,14,12.20
2008,08,12,06,15,12.20
2008,08,12,06,16,12.20
2008,08,12,06,17,12.20
2008,08,12,06,18,12.20
2008,08,12,06,19,12.20
2008,08,12,06,20,12.20
2008,08,12,06,21,12.20
2008,08,12,06,22,12.20
2008,08,12,06,23,12.20
2008,08,12,06,24,12.30
2008,08,12,06,25,12.30
2008,08,12,06,26,12.30
2008,08,12,06,27,12.30
2008,08,12,06,28,12.30
2008,08,12,06,29,12.30
2008,08,12,06,30,12.30
2008,08,12,06,31,12.30
2008,08,12,06,32,12.40
2008,08,12,06,33,12.40
2008,08,12,06,34,12.40
2008,08,12,06,35,12.40
2008,08,12,06,36,12.40
2008,08,12,06,37,12.50
2008,08,12,06,38,12.50
2008,08,12,06,39,12.60
2008,08,12,06,40,12.60
2008,08,12,06,41,12.60
2008,08,12,06,42,12.70
2008,08,12,06,43,12.70
2008,08,12,06,44,12.70
2008,08,12,06,45,12.80
2008,08,12,06,46,12.80
2008,08,12,06,47,12.80
2008,08,12,06,48,12.90
2008,08,12,06,49,12.90
2008,08,12,06,50,12.90
2008,08,12,06,51,13.00
2008,08,12,06,52,13.00
2008,08,12,06,53,13.10
2008,08,12,06,54,13.20
2008,08,12,06,55,13.20
2008,08,12,06,56,13.30
2008,08,12,06,57,13.30
2008,08,12,06,58,13.40
2008,08,12,06,59,13.50
2008,08,12,07,00,13.60
2008,08,12,07,01,13.60
2008,08,12,07,02,13.70
2008,08,12,07,03,13.80
2008,08,12,07,04,13.90
2008,08,12,07,05,13.90
2008,08,12,07,06,14.00
2008,08,12,07,07,14.00
2008,08,12,07,08,14.10
2008,08,12,07,09,14.10
2008,08,12,07,10,14.10
2008,08,12,07,11,14.20
2008,08,12,07,12,14.20
2008,08,12,07,13,14.20
2008,08,12,07,14,14.20
2008,08,12,07,15,14.30
2008,08,12,07,16,14.30
2008,08,12,07,17,14.30
2008,08,12,07,18,14.30
2008,08,12,07,19,14.30
2008,08,12,07,20,14.30
2008,08,12,07,21,14.30
2008,08,12,07,22,14.30
2008,08,12,07,23,14.20
2008,08,12,07,24,14.30
2008,08,12,07,25,14.30
2008,08,12,07,26,14.30
2008,08,12,07,27,14.30
2008,08,12,07,28,14.30
2008,08,12,07,29,14.40
2008,08,12,07,30,14.40
2008,08,12,07,31,14.50
2008,08,12,07,32,14.50
2008,08,12,07,33,14.60
2008,08,12,07,34,14.70
2008,08,12,07,35,14.70
2008,08,12,07,36,14.80
2008,08,12,07,37,14.90
2008,08,12,07,38,15.00
2008,08,12,07,39,15.00
2008,08,12,07,40,15.00
2008,08,12,07,41,15.00
2008,08,12,07,42,15.10
2008,08,12,07,43,15.20
2008,08,12,07,44,15.30
2008,08,12,07,45,15.30
2008,08,12,07,46,15.30
2008,08,12,07,47,15.40
2008,08,12,07,48,15.40
2008,08,12,07,49,15.50
2008,08,12,07,50,15.50
2008,08,12,07,51,15.60
2008,08,12,07,52,15.60
2008,08,12,07,53,15.60
2008,08,12,07,54,15.70
2008,08,12,07,55,15.70
2008,08,12,07,56,15.70
2008,08,12,07,57,15.70
2008,08,12,07,58,15.70
2008,08,12,07,59,15.70
2008,08,12,08,00,15.70
2008,08,12,08,01,15.70
2008,08,12,08,02,15.70
2008,08,12,08,03,15.70
2008,08,12,08,04,15.70
2008,08,12,08,05,15.70
2008,08,12,08,06,15.70
2008,08,12,08,07,15.70
2008,08,12,08,08,15.70
2008,08,12,08,09,15.70
2008,08,12,08,10,15.80
2008,08,12,08,11,15.80
2008,08,12,08,12,15.80
2008,08,12,08,13,15.80
2008,08,12,08,14,15.80
2008,08,12,08,15,15.80
2008,08,12,08,16,15.80
2008,08,12,08,17,15.90
2008,08,12,08,18,15.90
2008,08,12,08,19,15.90
2008,08,12,08,20,15.90
2008,08,12,08,21,15.90
2008,08,12,08,22,15.90
2008,08,12,08,23,16.00
2008,08,12,08,24,16.00
2008,08,12,08,25,16.10
2008,08,12,08,26,16.10
2008,08,12,08,27,16.10
2008,08,12,08,28,16.20
2008,08,12,08,29,16.20
2008,08,12,08,30,16.20
2008,08,12,08,31,16.30
2008,08,12,08,32,16.30
2008,08,12,08,33,16.30
2008,08,12,08,34,16.30
2008,08,12,08,35,16.30
2008,08,12,08,36,16.30
2008,08,12,08,37,16.30
2008,08,12,08,38,16.30
2008,08,12,08,39,16.30
2008,08,12,08,40,16.30
2008,08,12,08,41,16.30
2008,08,12,08,42,16.40
2008,08,12,08,43,16.40
2008,08,12,08,44,16.40
2008,08,12,08,45,16.40
2008,08,12,08,46,16.50
2008,08,12,08,47,16.50
2008,08,12,08,48,16.60
2008,08,12,08,49,16.60
2008,08,12,08,50,16.70
2008,08,12,08,51,16.70
2008,08,12,08,52,16.80
2008,08,12,08,53,16.80
2008,08,12,08,54,16.90
2008,08,12,08,55,16.90
2008,08,12,08,56,16.90
2008,08,12,08,57,16.90
2008,08,12,08,58,17.00
2008,08,12,08,59,17.10
2008,08,12,09,00,17.20
2008,08,12,09,01,17.20
2008,08,12,09,02,17.30
2008,08,12,09,03,17.40
2008,08,12,09,04,17.50
2008,08,12,09,05,17.50
2008,08,12,09,06,17.50
2008,08,12,09,07,17.60
2008,08,12,09,08,17.60
2008,08,12,09,09,17.60
2008,08,12,09,10,17.60
2008,08,12,09,11,17.60
2008,08,12,09,12,17.70
2008,08,12,09,13,17.70
2008,08,12,09,14,17.80
2008,08,12,09,15,17.90
2008,08,12,09,16,18.00
2008,08,12,09,17,18.10
2008,08,12,09,18,18.20
2008,08,12,09,19,18.20
2008,08,12,09,20,18.30
2008,08,12,09,21,18.40
2008,08,12,09,22,18.40
2008,08,12,09,23,18.40
2008,08,12,09,24,18.40
2008,08,12,09,25,18.40
2008,08,12,09,26,18.40
2008,08,12,09,27,18.40
2008,08,12,09,28,18.30
2008,08,12,09,29,18.30
2008,08,12,09,30,18.30
2008,08,12,09,31,18.40
2008,08,12,09,32,18.40
2008,08,12,09,33,18.50
2008,08,12,09,34,18.50
2008,08,12,09,35,18.60
2008,08,12,09,36,18.60
2008,08,12,09,37,18.70
2008,08,12,09,38,18.70
2008,08,12,09,39,18.70
2008,08,12,09,40,18.80
2008,08,12,09,41,18.80
2008,08,12,09,42,18.90
2008,08,12,09,43,19.00
2008,08,12,09,44,19.10
2008,08,12,09,45,19.20
2008,08,12,09,46,19.20
2008,08,12,09,47,19.20
2008,08,12,09,48,19.20
2008,08,12,09,49,19.20
2008,08,12,09,50,19.30
2008,08,12,09,51,19.40
2008,08,12,09,52,19.50
2008,08,12,09,53,19.70
2008,08,12,09,54,19.80
2008,08,12,09,55,19.90
2008,08,12,09,56,19.90
2008,08,12,09,57,20.00
2008,08,12,09,58,20.00
2008,08,12,09,59,20.10
2008,08,12,10,00,20.20
2008,08,12,10,01,20.20
2008,08,12,10,02,20.30
2008,08,12,10,03,20.40
2008,08,12,10,04,20.40
2008,08,12,10,05,20.40
2008,08,12,10,06,20.30
2008,08,12,10,07,20.20
2008,08,12,10,08,20.00
2008,08,12,10,09,19.90
2008,08,12,10,10,19.90
2008,08,12,10,11,19.90
2008,08,12,10,12,19.90
2008,08,12,10,13,19.90
2008,08,12,10,14,19.90
2008,08,12,10,15,19.90
2008,08,12,10,16,19.90
2008,08,12,10,17,19.90
2008,08,12,10,18,19.90
2008,08,12,10,19,19.90
2008,08,12,10,20,19.80
2008,08,12,10,21,19.70
2008,08,12,10,22,19.60
2008,08,12,10,23,19.50
2008,08,12,10,24,19.40
2008,08,12,10,25,19.30
2008,08,12,10,26,19.30
2008,08,12,10,27,19.30
2008,08,12,10,28,19.30
2008,08,12,10,29,19.30
2008,08,12,10,30,19.40
2008,08,12,10,31,19.50
2008,08,12,10,32,19.50
2008,08,12,10,33,19.60
2008,08,12,10,34,19.60
2008,08,12,10,35,19.80
2008,08,12,10,36,19.80
2008,08,12,10,37,19.80
2008,08,12,10,38,19.80
2008,08,12,10,39,19.80
2008,08,12,10,40,19.80
2008,08,12,10,41,19.80
2008,08,12,10,42,19.70
2008,08,12,10,43,19.80
2008,08,12,10,44,19.80
2008,08,12,10,45,19.70
2008,08,12,10,46,19.70
2008,08,12,10,47,19.70
2008,08,12,10,48,19.60
2008,08,12,10,49,19.50
2008,08,12,10,50,19.40
2008,08,12,10,51,19.40
2008,08,12,10,52,19.40
2008,08,12,10,53,19.40
2008,08,12,10,54,19.30
2008,08,12,10,55,19.30
2008,08,12,10,56,19.30
2008,08,12,10,57,19.20
2008,08,12,10,58,19.20
2008,08,12,10,59,19.20
2008,08,12,11,00,19.20
2008,08,12,11,01,19.10
2008,08,12,11,02,19.00
2008,08,12,11,03,18.90
2008,08,12,11,04,18.70
2008,08,12,11,05,18.50
2008,08,12,11,06,18.40
2008,08,12,11,07,18.30
2008,08,12,11,08,18.30
2008,08,12,11,09,18.30
2008,08,12,11,10,18.20
2008,08,12,11,11,18.20
2008,08,12,11,12,18.20
2008,08,12,11,13,18.10
2008,08,12,11,14,18.10
2008,08,12,11,15,18.00
2008,08,12,11,16,18.00
2008,08,12,11,17,17.90
2008,08,12,11,18,17.90
2008,08,12,11,19,17.90
2008,08,12,11,20,17.90
2008,08,12,11,21,17.90
2008,08,12,11,22,17.90
2008,08,12,11,23,17.90
2008,08,12,11,24,17.90
2008,08,12,11,25,17.90
2008,08,12,11,26,17.90
2008,08,12,11,27,17.80
2008,08,12,11,28,17.80
2008,08,12,11,29,17.80
2008,08,12,11,30,17.80
2008,08,12,11,31,17.80
2008,08,12,11,32,17.80
2008,08,12,11,33,17.80
2008,08,12,11,34,17.70
2008,08,12,11,35,17.80
2008,08,12,11,36,17.80
2008,08,12,11,37,17.80
2008,08,12,11,38,17.70
2008,08,12,11,39,17.70
2008,08,12,11,40,17.80
2008,08,12,11,41,17.80
2008,08,12,11,42,17.80
2008,08,12,11,43,17.80
2008,08,12,11,44,17.80
2008,08,12,11,45,17.80
2008,08,12,11,46,17.80
2008,08,12,11,47,17.90
2008,08,12,11,48,17.90
2008,08,12,11,49,17.90
2008,08,12,11,50,17.90
2008,08,12,11,51,18.00
2008,08,12,11,52,18.00
2008,08,12,11,53,18.00
2008,08,12,11,54,18.00
2008,08,12,11,55,18.10
2008,08,12,11,56,18.10
2008,08,12,11,57,18.10
2008,08,12,11,58,18.00
2008,08,12,11,59,18.00
2008,08,12,12,00,18.00
2008,08,12,12,01,18.00
2008,08,12,12,02,18.00
2008,08,12,12,03,17.90
2008,08,12,12,04,17.90
2008,08,12,12,05,17.90
2008,08,12,12,06,17.90
2008,08,12,12,07,17.90
2008,08,12,12,08,17.80
2008,08,12,12,09,17.80
2008,08,12,12,10,17.80
2008,08,12,12,11,17.80
2008,08,12,12,12,17.80
2008,08,12,12,13,17.80
2008,08,12,12,14,17.80
2008,08,12,12,15,17.80
2008,08,12,12,16,17.80
2008,08,12,12,17,17.80
2008,08,12,12,18,17.80
2008,08,12,12,19,17.80
2008,08,12,12,20,17.80
2008,08,12,12,21,17.80
2008,08,12,12,22,17.70
2008,08,12,12,23,17.70
2008,08,12,12,24,17.70
2008,08,12,12,25,17.70
2008,08,12,12,26,17.70
2008,08,12,12,27,17.70
2008,08,12,12,28,17.70
2008,08,12,12,29,17.70
2008,08,12,12,30,17.70
2008,08,12,12,31,17.60
2008,08,12,12,32,17.60
2008,08,12,12,33,17.60
2008,08,12,12,34,17.60
2008,08,12,12,35,17.60
2008,08,12,12,36,17.60
2008,08,12,12,37,17.60
2008,08,12,12,38,17.60
2008,08,12,12,39,17.60
2008,08,12,12,40,17.60
2008,08,12,12,41,17.70
2008,08,12,12,42,17.70
2008,08,12,12,43,17.70
2008,08,12,12,44,17.70
2008,08,12,12,45,17.80
2008,08,12,12,46,17.80
2008,08,12,12,47,17.80
2008,08,12,12,48,17.80
2008,08,12,12,49,17.80
2008,08,12,12,50,17.80
2008,08,12,12,51,17.80
2008,08,12,12,52,17.80
2008,08,12,12,53,17.80
2008,08,12,12,54,17.80
2008,08,12,12,55,17.80
2008,08,12,12,56,17.80
2008,08,12,12,57,17.80
2008,08,12,12,58,17.80
2008,08,12,12,59,17.90
2008,08,12,13,00,17.90
2008,08,12,13,01,17.90
2008,08,12,13,02,17.80
2008,08,12,13,03,17.80
2008,08,12,13,04,17.80
2008,08,12,13,05,17.80
2008,08,12,13,06,17.80
2008,08,12,13,07,17.90
2008,08,12,13,08,17.90
2008,08,12,13,09,17.90
2008,08,12,13,10,17.90
2008,08,12,13,11,17.90
2008,08,12,13,12,18.00
2008,08,12,13,13,18.00
2008,08,12,13,14,18.00
2008,08,12,13,15,18.10
2008,08,12,13,16,18.10
2008,08,12,13,17,18.10
2008,08,12,13,18,18.20
2008,08,12,13,19,18.20
2008,08,12,13,20,18.20
2008,08,12,13,21,18.20
2008,08,12,13,22,18.20
2008,08,12,13,23,18.20
2008,08,12,13,24,18.20
2008,08,12,13,25,18.20
2008,08,12,13,26,18.20
2008,08,12,13,27,18.10
2008,08,12,13,28,18.10
2008,08,12,13,29,18.00
2008,08,12,13,30,18.00
2008,08,12,13,31,18.00
2008,08,12,13,32,17.90
2008,08,12,13,33,17.90
2008,08,12,13,34,17.90
2008,08,12,13,35,17.90
2008,08,12,13,36,17.90
2008,08,12,13,37,18.00
2008,08,12,13,38,18.00
2008,08,12,13,39,18.00
2008,08,12,13,40,18.10
2008,08,12,13,41,18.10
2008,08,12,13,42,18.10
2008,08,12,13,43,18.20
2008,08,12,13,44,18.20
2008,08,12,13,45,18.20
2008,08,12,13,46,18.20
2008,08,12,13,47,18.30
2008,08,12,13,48,18.30
2008,08,12,13,49,18.30
2008,08,12,13,50,18.30
2008,08,12,13,51,18.30
2008,08,12,13,52,18.30
2008,08,12,13,53,18.30
2008,08,12,13,54,18.30
2008,08,12,13,55,18.30
2008,08,12,13,56,18.30
2008,08,12,13,57,18.30
2008,08,12,13,58,18.40
2008,08,12,13,59,18.40
2008,08,12,14,00,18.40
2008,08,12,14,01,18.40
2008,08,12,14,02,18.50
2008,08,12,14,03,18.50
2008,08,12,14,04,18.60
2008,08,12,14,05,18.60
2008,08,12,14,06,18.60
2008,08,12,14,07,18.60
2008,08,12,14,08,18.70
2008,08,12,14,09,18.70
2008,08,12,14,10,18.80
2008,08,12,14,11,18.80
2008,08,12,14,12,18.90
2008,08,12,14,13,19.00
2008,08,12,14,14,19.10
2008,08,12,14,15,19.20
2008,08,12,14,16,19.20
2008,08,12,14,17,19.30
2008,08,12,14,18,19.40
2008,08,12,14,19,19.40
2008,08,12,14,20,19.40
2008,08,12,14,21,19.40
2008,08,12,14,22,19.40
2008,08,12,14,23,19.40
2008,08,12,14,24,19.50
2008,08,12,14,25,19.50
2008,08,12,14,26,19.50
2008,08,12,14,27,19.60
2008,08,12,14,28,19.50
2008,08,12,14,29,19.50
2008,08,12,14,30,19.50
2008,08,12,14,31,19.50
2008,08,12,14,32,19.60
2008,08,12,14,33,19.60
2008,08,12,14,34,19.60
2008,08,12,14,35,19.60
2008,08,12,14,36,19.60
2008,08,12,14,37,19.70
2008,08,12,14,38,19.70
2008,08,12,14,39,19.70
2008,08,12,14,40,19.80
2008,08,12,14,41,19.80
2008,08,12,14,42,19.80
2008,08,12,14,43,19.80
2008,08,12,14,44,19.80
2008,08,12,14,45,19.80
2008,08,12,14,46,19.80
2008,08,12,14,47,19.80
2008,08,12,14,48,19.80
2008,08,12,14,49,19.80
2008,08,12,14,50,19.80
2008,08,12,14,51,19.80
2008,08,12,14,52,19.90
2008,08,12,14,53,19.90
2008,08,12,14,54,20.00
2008,08,12,14,55,20.00
2008,08,12,14,56,20.00
2008,08,12,14,57,20.10
2008,08,12,14,58,20.10
2008,08,12,14,59,20.20
2008,08,12,15,00,20.20
2008,08,12,15,01,20.20
2008,08,12,15,02,20.20
2008,08,12,15,03,20.20
2008,08,12,15,04,20.10
2008,08,12,15,05,20.00
2008,08,12,15,06,20.00
2008,08,12,15,07,20.10
2008,08,12,15,08,20.10
2008,08,12,15,09,20.10
2008,08,12,15,10,20.20
2008,08,12,15,11,20.20
2008,08,12,15,12,20.20
2008,08,12,15,13,20.20
2008,08,12,15,14,20.20
2008,08,12,15,15,20.30
2008,08,12,15,16,20.30
2008,08,12,15,17,20.40
2008,08,12,15,18,20.40
2008,08,12,15,19,20.40
2008,08,12,15,20,20.40
2008,08,12,15,21,20.40
2008,08,12,15,22,20.40
2008,08,12,15,23,20.40
2008,08,12,15,24,20.40
2008,08,12,15,25,20.40
2008,08,12,15,26,20.40
2008,08,12,15,27,20.40
2008,08,12,15,28,20.40
2008,08,12,15,29,20.40
2008,08,12,15,30,20.40
2008,08,12,15,31,20.50
2008,08,12,15,32,20.60
2008,08,12,15,33,20.60
2008,08,12,15,34,20.60
2008,08,12,15,35,20.60
2008,08,12,15,36,20.60
2008,08,12,15,37,20.60
2008,08,12,15,38,20.60
2008,08,12,15,39,20.60
2008,08,12,15,40,20.60
2008,08,12,15,41,20.50
2008,08,12,15,42,20.50
2008,08,12,15,43,20.40
2008,08,12,15,44,20.40
2008,08,12,15,45,20.30
2008,08,12,15,46,20.40
2008,08,12,15,47,20.40
2008,08,12,15,48,20.40
2008,08,12,15,49,20.50
2008,08,12,15,50,20.50
2008,08,12,15,51,20.60
2008,08,12,15,52,20.60
2008,08,12,15,53,20.50
2008,08,12,15,54,20.50
2008,08,12,15,55,20.50
2008,08,12,15,56,20.60
2008,08,12,15,57,20.60
2008,08,12,15,58,20.60
2008,08,12,15,59,20.70
2008,08,12,16,00,20.70
2008,08,12,16,01,20.70
2008,08,12,16,02,20.70
2008,08,12,16,03,20.70
2008,08,12,16,04,20.70
2008,08,12,16,05,20.70
2008,08,12,16,06,20.80
2008,08,12,16,07,20.80
2008,08,12,16,08,20.80
2008,08,12,16,09,20.90
2008,08,12,16,10,20.80
2008,08,12,16,11,20.80
2008,08,12,16,12,20.80
2008,08,12,16,13,20.80
2008,08,12,16,14,20.80
2008,08,12,16,15,20.80
2008,08,12,16,16,20.80
2008,08,12,16,17,20.80
2008,08,12,16,18,20.80
2008,08,12,16,19,20.70
2008,08,12,16,20,20.70
2008,08,12,16,21,20.60
2008,08,12,16,22,20.50
2008,08,12,16,23,20.50
2008,08,12,16,24,20.40
2008,08,12,16,25,20.30
2008,08,12,16,26,20.30
2008,08,12,16,27,20.20
2008,08,12,16,28,20.10
2008,08,12,16,29,20.10
2008,08,12,16,30,20.10
2008,08,12,16,31,20.10
2008,08,12,16,32,20.20
2008,08,12,16,33,20.20
2008,08,12,16,34,20.10
2008,08,12,16,35,20.10
2008,08,12,16,36,20.20
2008,08,12,16,37,20.20
2008,08,12,16,38,20.30
2008,08,12,16,39,20.30
2008,08,12,16,40,20.40
2008,08,12,16,41,20.50
2008,08,12,16,42,20.50
2008,08,12,16,43,20.60
2008,08,12,16,44,20.60
2008,08,12,16,45,20.60
2008,08,12,16,46,20.60
2008,08,12,16,47,20.60
2008,08,12,16,48,20.60
2008,08,12,16,49,20.70
2008,08,12,16,50,20.70
2008,08,12,16,51,20.70
2008,08,12,16,52,20.70
2008,08,12,16,53,20.70
2008,08,12,16,54,20.70
2008,08,12,16,55,20.60
2008,08,12,16,56,20.60
2008,08,12,16,57,20.60
2008,08,12,16,58,20.60
2008,08,12,16,59,20.70
2008,08,12,17,00,20.70
2008,08,12,17,01,20.70
2008,08,12,17,02,20.80
2008,08,12,17,03,20.70
2008,08,12,17,04,20.70
2008,08,12,17,05,20.80
2008,08,12,17,06,20.80
2008,08,12,17,07,20.80
2008,08,12,17,08,20.80
2008,08,12,17,09,20.80
2008,08,12,17,10,20.70
2008,08,12,17,11,20.70
2008,08,12,17,12,20.80
2008,08,12,17,13,20.80
2008,08,12,17,14,20.90
2008,08,12,17,15,21.00
2008,08,12,17,16,21.00
2008,08,12,17,17,20.90
2008,08,12,17,18,20.90
2008,08,12,17,19,20.90